Flag for Germany Weather past 2 weeks in Gronau (Westfalen), North Rhine-Westphalia, Germany

Now
46 °F

Low clouds.


Feels Like: N/A
Forecast: 53 / 71 °F
Wind: N/A

Location: Twenthe

Current Time: Sep 2, 2014 at 6:21:22 AM

Latest Report: Sep 2, 2014 at 5:00 AM


Visibility: 0 mi

Pressure: 30.16 "Hg

Humidity: 100%

Dew point: 46 °F

Location of Gronau (Westfalen)Location

Historic Weather in Gronau (Westfalen) — Graph

°F

Gronau (Westfalen) temperature yesterday

Maximum temperature yesterday: 67 °F (at 2:00 PM)
Minimum temperature yesterday: 45 °F (at 3:00 AM)
Average temperature yesterday: 56 °F

Past Weeks' High & Low Weather Summary

 TemperatureHumidityPressure
High72 °F (Aug 28, 3:00 PM)100% (Aug 21, 2:00 AM)30.16 "Hg (Aug 21, 2:00 AM)
Low42 °F (Aug 27, 6:00 AM)46% (Aug 27, 5:00 PM)29.60 "Hg (Aug 18, 8:00 AM)
Average56 °F86%29.93 "Hg
* Reported Aug 18 5:00 AM — Sep 2 5:00 AM, Gronau (Westfalen), Weather by CustomWeather, © 2014

Note: Actual official high and low records may vary slightly from our data, if they occured in-between our weather recording intervals... More about our weather records

Advertising

Gronau (Westfalen) weather history for previous 24 hours

 ConditionsComfort  
Time TempWeatherWind HumidityBarometerVisibility
5:00 AM
Sep 2
46 °FLow clouds.N/A100%30.16 "Hg0 mi
4:00 AM47 °FClear.No wind100%30.16 "Hg0 mi
3:00 AM47 °FClear.1 mph100%30.16 "Hg0 mi
2:00 AM48 °FClear.1 mph99%30.16 "Hg0 mi
1:00 AM50 °FClear.No wind99%30.16 "Hg0 mi
12:00 AM52 °FPassing clouds.No wind100%30.16 "Hg0 mi
11:00 PM
Sep 1
54 °FFog.No wind99%30.16 "Hg2 mi
10:00 PM56 °FOvercast.No wind96%30.15 "Hg10 mi
9:00 PM59 °FOvercast.1 mph85%30.14 "Hg22 mi
8:00 PM61 °FOvercast.2 mph79%30.13 "Hg25 mi
7:00 PM64 °FPartly sunny.1 mph83%30.12 "Hg19 mi
6:00 PM66 °FOvercast.2 mph67%30.12 "Hg22 mi
5:00 PM66 °FOvercast.3 mph70%30.12 "Hg22 mi
4:00 PM65 °FOvercast.3 mph70%30.12 "Hg19 mi
3:00 PM67 °FOvercast.3 mph61%30.13 "Hg19 mi
2:00 PM67 °FSunny.2 mph65%30.13 "Hg22 mi
1:00 PM63 °FOvercast.3 mph73%30.14 "Hg22 mi
12:00 PM64 °FPartly sunny.3 mph79%30.13 "Hg19 mi
11:00 AM60 °FLow clouds.2 mph88%30.13 "Hg11 mi
10:00 AM56 °FLow clouds.2 mph100%30.12 "Hg3 mi
9:00 AM53 °FLow clouds.2 mph100%30.11 "Hg0 mi
8:00 AM51 °FLow clouds.1 mph100%30.11 "Hg0 mi
7:00 AM48 °FPartly sunny.1 mph100%30.10 "Hg0 mi
6:00 AM45 °FLow clouds.1 mph99%30.10 "Hg0 mi
Weather by CustomWeather, © 2014

See weather overviewHow to use our weather pages